Flag Weather past 2 weeks in Tulsa, Oklahoma, U.S.A.

Now
53 °F

Low clouds.


Feels Like: 50 °F
Forecast: 55 / 60 °F
Wind: 10 mph from Southeast

Location: Tulsa International Airport

Current Time: Nov 21, 2014 at 8:12:03 PM

Latest Report: Nov 21, 2014 at 7:53 PM


Visibility: 9 mi

Pressure: 30.08 "Hg

Humidity: 93%

Dew point: 51 °F

Location of TulsaLocation

Historic Weather in Tulsa — Graph

°F

Tulsa temperature yesterday

Maximum temperature yesterday: 59 °F (at 2:53 PM)
Minimum temperature yesterday: 25 °F (at 6:53 AM)
Average temperature yesterday: 42 °F

Past Weeks' High & Low Weather Summary

 TemperatureHumidityPressure
High78 °F (Nov 10, 1:53 PM)96% (Nov 21, 8:00 AM)30.66 "Hg (Nov 21, 8:00 AM)
Low14 °F (Nov 18, 6:53 AM)28% (Nov 7, 12:53 PM)29.38 "Hg (Nov 10, 1:53 PM)
Average40 °F57%30.18 "Hg
* Reported Nov 6 6:53 PM — Nov 21 6:53 PM, Tulsa, Weather by CustomWeather, © 2014

Note: Actual official high and low records may vary slightly from our data, if they occured in-between our weather recording intervals... More about our weather records

Advertising

Tulsa weather history for previous 24 hours

 ConditionsComfort  
Time TempWeatherWind HumidityBarometerVisibility
6:53 PM
Nov 21
53 °FOvercast.15 mph89%30.07 "Hg10 mi
5:53 PM54 °FOvercast.13 mph86%30.06 "Hg10 mi
4:53 PM57 °FOvercast.13 mph78%30.05 "Hg10 mi
3:53 PM57 °FOvercast.14 mph78%30.05 "Hg10 mi
2:53 PM58 °FMostly cloudy.13 mph78%30.05 "Hg10 mi
1:53 PM57 °FOvercast.10 mph78%30.06 "Hg10 mi
12:53 PM56 °FOvercast.15 mph84%30.09 "Hg9 mi
11:53 AM54 °FOvercast.15 mph86%30.12 "Hg9 mi
10:53 AM52 °FOvercast.9 mph89%30.14 "Hg9 mi
9:53 AM50 °FFog.7 mph93%30.14 "Hg6 mi
8:53 AM47 °FLight rain. Fog.3 mph93%30.14 "Hg5 mi
8:00 AM44 °FLight rain. Fog.7 mph96%30.11 "Hg5 mi
6:53 AM43 °FLight rain. Overcast.No wind89%30.11 "Hg7 mi
5:53 AM43 °FLight rain. Overcast.5 mph76%30.10 "Hg10 mi
4:53 AM43 °FOvercast.3 mph68%30.11 "Hg10 mi
3:53 AM39 °FOvercast.3 mph76%30.11 "Hg10 mi
2:53 AM38 °FOvercast.3 mph76%30.11 "Hg10 mi
1:53 AM36 °FMostly cloudy.3 mph79%30.11 "Hg10 mi
12:53 AM33 °FPassing clouds.3 mph85%30.14 "Hg10 mi
11:53 PM
Nov 20
34 °FPassing clouds.5 mph82%30.14 "Hg10 mi
10:53 PM34 °FPassing clouds.6 mph82%30.14 "Hg10 mi
9:53 PM35 °FPassing clouds.6 mph78%30.14 "Hg10 mi
8:53 PM43 °FPassing clouds.6 mph60%30.13 "Hg10 mi
Weather by CustomWeather, © 2014

See weather overviewHow to use our weather pages